This is the latest recevied weather packets stored in our database for station/object N1ICS-1. If no packets are shown the sender has not sent any weather packets the latest 10 day(s).
| Time | Temp. | Humidity | Pressure | Rain* | Wind** | Luminosity | Snow |
|---|---|---|---|---|---|---|---|
| 1777996502 | 13.33° C | 78% | 1010.7 hPa | 0 mm | - | 66 W/m² | - |
| 1777996202 | 13.89° C | 81% | 1010.5 hPa | 0 mm | - | 86 W/m² | - |
| 1777995901 | 14.44° C | 83% | 1010.3 hPa | 0 mm | - | 78 W/m² | - |
| 1777995601 | 14.44° C | 86% | 1010 hPa | 0 mm | - | 112 W/m² | - |
| 1777995302 | 14.44° C | 88% | 1010.1 hPa | 0 mm | - | 77 W/m² | - |
| 1777995002 | 14.44° C | 87% | 1010 hPa | 0 mm | - | 78 W/m² | - |
| 1777994702 | 14.44° C | 88% | 1009.8 hPa | 0 mm | - | 80 W/m² | - |
| 1777994401 | 14.44° C | 87% | 1009.7 hPa | 0 mm | - | 87 W/m² | - |
| 1777994102 | 14.44° C | 88% | 1009.9 hPa | 0 mm | - | 104 W/m² | - |
| 1777993802 | 14.44° C | 89% | 1009.8 hPa | 0 mm | - | 77 W/m² | - |
| 1777993502 | 14.44° C | 88% | 1009.8 hPa | 0 mm | - | 69 W/m² | - |
| 1777993202 | 14.44° C | 89% | 1009.6 hPa | 0 mm | - | 85 W/m² | - |
| 1777992902 | 15° C | 90% | 1009.6 hPa | 0 mm | - | 55 W/m² | - |
| 1777992602 | 15° C | 90% | 1009.5 hPa | 0 mm | - | 49 W/m² | - |
| 1777992302 | 15° C | 90% | 1009.6 hPa | 0 mm | - | 39 W/m² | - |
| 1777992002 | 15° C | 90% | 1009.3 hPa | 0 mm | - | 57 W/m² | - |
| 1777991703 | 15° C | 90% | 1009.5 hPa | 0 mm | - | 61 W/m² | - |
| 1777991402 | 15° C | 89% | 1009.2 hPa | 0 mm | - | 57 W/m² | - |
| 1777991102 | 15.56° C | 89% | 1009.2 hPa | 0 mm | - | 95 W/m² | - |
| 1777990802 | 15.56° C | 88% | 1009.2 hPa | 0 mm | - | 94 W/m² | - |
| 1777990501 | 15.56° C | 87% | 1009 hPa | 0 mm | - | 155 W/m² | - |
| 1777989902 | 16.11° C | 87% | 1008.9 hPa | 0 mm | - | 399 W/m² | - |
| 1777989602 | 15.56° C | 87% | 1008.5 hPa | 0 mm | - | 322 W/m² | - |
| 1777989302 | 15.56° C | 88% | 1008.8 hPa | 0 mm | - | 200 W/m² | - |
| 1777989002 | 15.56° C | 88% | 1008.6 hPa | 0 mm | - | 111 W/m² | - |
* Rain latest hour (hover to see other rain measurements)
** Current wind speed in m/s (hover to see current wind gust speed)